Tiempo atmosférico en la estación meteorológica de El Pinar, Depósito, Santa Cruz de Tenerife (948 m.)



Fecha
DESCASC
Temp. máxima en grados centígrados (hora)
DESCASC
Temp. mínima en grados centígrados (hora)
DESCASC
Temp. media en grados centígrados
DESCASC
Racha de viento máxima en m/sg (hora)
DESCASC
Velocidad máxima media en intervalos de 10 minutos(hora)
DESCASC
Precipitaciones diarias en mm
DESCASC
Precipitaciones de 00:00 a 06:00 en mm
DESCASC
Precipitaciones de 06:00 a 12:00 en mm
DESCASC
Precipitaciones de 12:00 a 18:00 en mm
DESCASC
Precipitaciones de 18:00 a 24:00 en mm
DESCASC
08-12-2019 14.7 (15:00) 10.8 (00:00) 12.8 15 (10:00) 5.28 (12:10) 0 0 0 0 0
07-12-2019 15.6 (12:30) 10.6 (02:00) 13.1 12.5 (22:50) 4.44 (22:50) 0.8 0.6 0.2 0 0
06-12-2019 13.6 (15:30) 10.4 (00:10) 12 14.72 (05:00) 5.83 (00:20) 2.6 0.4 0.6 1.6 0
05-12-2019 13.1 (00:50) 9.4 (00:00) 11.3 17.5 (03:30) 5.83 (05:50) 30.4 17.4 2.2 10 0.8
04-12-2019 14.4 (16:10) 10.2 (01:30) 12.3 10 (23:10) 3.89 (19:00) 12 0 0 0 12
03-12-2019 13 (14:20) 10.8 (00:00) 11.9 10.56 (02:00) 3.61 (01:40) 1.2 0.2 0.4 0 0.6
02-12-2019 17.4 (12:50) 10.4 (00:00) 13.9 11.67 (06:40) 4.44 (06:50) 0 0 0 0 0
01-12-2019 23.6 (13:30) 11.6 (00:00) 17.6 5.83 (02:00) 2.78 (11:30) 0 0 0 0 0
30-11-2019 23 (14:10) 15.6 (00:00) 19.3 8.06 (09:00) 3.61 (12:10) 0 0 0 0 0
29-11-2019 20.2 (13:40) 12.6 (00:00) 16.4 12.5 (10:40) 4.44 (12:20) 0 0 0 0 0
28-11-2019 17.7 (10:40) 9.3 (03:40) 13.5 5.28 (23:00) 2.78 (10:40) 0 0 0 0 0
27-11-2019 16.3 (14:50) 9 (00:00) 12.6 4.72 (05:50) 2.5 (14:10) 0 0 0 0 0
26-11-2019 16.3 (15:10) 7.6 (00:00) 11.9 6.39 (00:50) 2.78 (11:40) 0 0 0 0 0
25-11-2019 15.5 (13:20) 7 (06:10) 11.3 7.78 (00:20) 3.06 (15:20) 0 0 0 0 0
24-11-2019 17.5 (13:30) 10.6 (00:00) 14.1 7.22 (04:50) 3.33 (13:50) 0 0 0 0 0
23-11-2019 20.6 (15:30) 13.8 (00:00) 17.2 8.61 (19:30) 3.89 (23:10) 1.8 1.2 0.6 0 0
22-11-2019 19.4 (15:30) 11.7 (00:00) 15.5 6.39 (16:00) 3.33 (14:30) 0.8 0.8 0 0 0
21-11-2019 17.5 (11:40) 8.3 (00:00) 12.9 8.33 (12:10) 3.61 (12:10) 0.4 0 0 0 0.4
20-11-2019 17.7 (14:20) 8.6 (07:20) 13.2 6.11 (15:40) 2.78 (14:20) 0.2 0 0.2 0 0
19-11-2019 16.3 (15:20) 7.6 (00:00) 11.9 7.22 (14:40) 3.06 (14:00) 0 0 0 0 0
18-11-2019 14.3 (16:00) 8.5 (00:00) 11.4 15 (10:10) 4.72 (10:30) 1 0.2 0.2 0.4 0.2
17-11-2019 13 (10:50) 10.4 (00:00) 11.7 11.67 (11:40) 4.44 (11:20) 2.8 0.4 0.2 1.6 0.6
16-11-2019 15.3 (14:30) 10.5 (00:00) 12.9 13.61 (09:10) 3.89 (09:50) 1.4 0.8 0.6 0 0
15-11-2019 14.8 (15:00) 10.5 (00:00) 12.7 13.61 (12:30) 5.28 (02:00) 2.2 0.2 1.4 0.6 0
14-11-2019 15.7 (16:00) 12.3 (00:00) 14 12.78 (01:40) 5.28 (22:50) 0.6 0 0 0.6 0
13-11-2019 17.9 (14:20) 12.3 (00:00) 15.1 14.17 (18:10) 5 (12:20) 0 0 0 0 0
12-11-2019 17.8 (15:20) 12.9 (00:00) 15.3 13.33 (16:50) 5.28 (22:40) 0.2 0 0 0 0.2
11-11-2019 20.2 (13:10) 12 (04:10) 16.1 16.39 (16:00) 5.83 (21:00) 0 0 0 0 0

Gráficas

Temp. máximas Temp. mínimas Temp. medias Precipitaciones Rachas de viento máximas Velocidades máximas media en intervalos de 10 minutos

Datos horarios

Fecha y hora oficial Temperatura (ºC) Velocidad del viento (km/h) Dirección del viento Racha (km/h) Dirección de racha Precipitación (mm) Presión (hPa) Tendencia (hPa) Humedad (%)
2019-12-10 23:00:00 -- -- -- -- -- -- -- -- --
2019-12-10 22:00:00 12.1 5 Norte 14 Norte 0 -- -- 60
2019-12-10 21:00:00 11.3 5 Este 14 Este 0 -- -- 80
2019-12-10 20:00:00 12.2 8 Nordeste 22 Norte 0 -- -- 89
2019-12-10 19:00:00 12.9 6 Nordeste 16 Este 0 -- -- 60
2019-12-10 18:00:00 14.4 5 Norte 16 Nordeste 0 -- -- 38
2019-12-10 17:00:00 15.9 6 Norte 22 Norte 0 -- -- 41
2019-12-10 16:00:00 13.7 9 Este 19 Sudeste 0 -- -- 86
2019-12-10 15:00:00 15.3 5 Este 17 Sudeste 0 -- -- 79
2019-12-10 14:00:00 15.8 8 Sudeste 16 Sudeste 0 -- -- 74
2019-12-10 13:00:00 13.9 8 Sudeste 26 Este 0 -- -- 84
2019-12-10 12:00:00 14.4 11 Sudeste 21 Este 0 -- -- 80
2019-12-10 11:00:00 14.8 8 Este 18 Este 0 -- -- 75
2019-12-10 10:00:00 14.9 6 Sudeste 13 Sudeste 0 -- -- 70
2019-12-10 09:00:00 11.3 3 Nordeste 9 Este 0 -- -- 53
2019-12-10 08:00:00 6.2 4 Norte 10 Norte 0 -- -- 67
2019-12-10 07:00:00 6.8 6 Norte 14 Noroeste 0 -- -- 63
2019-12-10 06:00:00 7 5 Norte 10 Noroeste 0 -- -- 73
2019-12-10 05:00:00 7.8 3 Este 15 Norte 0 -- -- 77
2019-12-10 04:00:00 9.1 3 Nordeste 21 Nordeste 0 -- -- 78
2019-12-10 03:00:00 9.6 8 Nordeste 17 Nordeste 0 -- -- 81
2019-12-10 02:00:00 9.9 6 Nordeste 20 Nordeste 0 -- -- 85
2019-12-10 01:00:00 10.2 8 Nordeste 22 Nordeste 0 -- -- 85
2019-12-10 00:00:00 10.4 9 Nordeste 19 Nordeste 0 -- -- 86
2019-12-09 23:00:00 10.1 5 Nordeste 17 Nordeste 0 -- -- 74
2019-12-09 22:00:00 10.5 7 Nordeste 23 Noroeste 0 -- -- 82
2019-12-09 21:00:00 10.5 9 Norte 23 Norte 0 -- -- 80
2019-12-09 20:00:00 10.9 9 Norte 25 Norte 0 -- -- 71
2019-12-09 19:00:00 11 9 Norte 24 Noroeste 0 -- -- 81
2019-12-09 18:00:00 12.6 9 Norte 18 Norte 0 -- -- 70
2019-12-09 17:00:00 13.5 6 Este 19 Este 0 -- -- 59
2019-12-09 16:00:00 13.9 7 Este 22 Este 0 -- -- 76
2019-12-09 15:00:00 14.6 11 Sudeste 30 Sudeste 0 -- -- 77
2019-12-09 14:00:00 14.8 15 Sudeste 33 Sudeste 0 -- -- 74
2019-12-09 13:00:00 14.8 15 Sudeste 31 Sudeste 0 -- -- 74
2019-12-09 12:00:00 14.5 11 Este 30 Sudeste 0 -- -- 73
2019-12-09 11:00:00 13.9 11 Este 29 Sudeste 0 -- -- 81
2019-12-09 10:00:00 13.2 10 Este 26 Sudeste 0 -- -- 80
2019-12-09 09:00:00 11.5 9 Este 22 Nordeste 0 -- -- 84
2019-12-09 08:00:00 10.6 10 Nordeste 29 Norte 0 -- -- 88
2019-12-09 07:00:00 10.8 11 Norte 34 Norte 0 -- -- 93
2019-12-09 06:00:00 10.9 9 Nordeste 34 Nordeste 0 -- -- 94
2019-12-09 05:00:00 10.9 11 Nordeste 30 Este 0 -- -- 91
2019-12-09 04:00:00 10.8 12 Nordeste 32 Nordeste 0 -- -- 90
2019-12-09 03:00:00 11.1 14 Nordeste 30 Nordeste 0 -- -- 91
2019-12-09 02:00:00 11 9 Nordeste 28 Nordeste 0 -- -- 91
2019-12-09 01:00:00 11.1 12 Nordeste 47 Nordeste 0 -- -- 88
2019-12-09 00:00:00 11 14 Nordeste 41 Nordeste 0 -- -- 89
2019-12-08 23:00:00 11.1 12 Nordeste 38 Nordeste 0 -- -- 85
2019-12-08 22:00:00 10.8 9 Nordeste 29 Nordeste 0 -- -- 87
2019-12-08 21:00:00 11.1 8 Nordeste 30 Este 0 -- -- 88
2019-12-08 20:00:00 11.2 6 Nordeste 31 Norte 0 -- -- 86
2019-12-08 19:00:00 11.4 10 Nordeste 28 Este 0 -- -- 83
2019-12-08 18:00:00 11.9 10 Nordeste 34 Nordeste 0 -- -- 92
2019-12-08 17:00:00 12.6 12 Nordeste 31 Nordeste 0 -- -- 91
2019-12-08 16:00:00 13.3 12 Nordeste 46 Nordeste 0 -- -- 81
2019-12-08 15:00:00 14.7 11 Nordeste 43 Este 0 -- -- 71
2019-12-08 14:00:00 13.2 6 Oeste 40 Sudeste 0 -- -- 83
2019-12-08 13:00:00 12.5 13 Este 40 Sudeste 0 -- -- 86
2019-12-08 12:00:00 13.8 17 Este 52 Este 0 -- -- 80
2019-12-08 11:00:00 14 14 Nordeste 42 Sudeste 0 -- -- 78
2019-12-08 10:00:00 13.5 15 Este 54 Sudeste 0 -- -- 81
2019-12-08 09:00:00 12.3 13 Nordeste 44 Nordeste 0 -- -- 85
2019-12-08 08:00:00 11.4 17 Norte 42 Norte 0 -- -- 81
2019-12-08 07:00:00 10.8 9 Norte 31 Este 0 -- -- 87
2019-12-08 06:00:00 11.1 16 Nordeste 44 Nordeste 0 -- -- 89
2019-12-08 05:00:00 11.3 13 Nordeste 38 Nordeste 0 -- -- 90
2019-12-08 04:00:00 10.9 10 Norte 33 Norte 0 -- -- 88
2019-12-08 03:00:00 11.3 13 Nordeste 34 Nordeste 0 -- -- 94
2019-12-08 02:00:00 11.5 15 Nordeste 39 Nordeste 0 -- -- 94
2019-12-08 01:00:00 11.3 12 Nordeste 34 Nordeste 0 -- -- 92
2019-12-08 00:00:00 10.8 9 Nordeste 38 Norte 0 -- -- 87
2019-12-07 23:00:00 11.3 12 Nordeste 45 Este 0 -- -- 82
2019-12-07 22:00:00 11 13 Nordeste 31 Nordeste 0 -- -- 87
2019-12-07 21:00:00 10.9 9 Norte 31 Norte 0 -- -- 87
2019-12-07 20:00:00 11.3 9 Norte 39 Norte 0 -- -- 87
2019-12-07 19:00:00 11.5 10 Norte 35 Nordeste 0 -- -- 88
2019-12-07 18:00:00 12.1 12 Norte 31 Norte 0 -- -- 85
2019-12-07 17:00:00 13.6 9 Nordeste 30 Nordeste 0 -- -- 83
2019-12-07 16:00:00 14.1 7 Nordeste 28 Nordeste 0 -- -- 84
2019-12-07 15:00:00 14 8 Este 34 Este 0 -- -- 81
2019-12-07 14:00:00 14.4 9 Nordeste 31 Sudeste 0 -- -- 83
2019-12-07 13:00:00 15.1 8 Nordeste 34 Este 0 -- -- 76
2019-12-07 12:00:00 15.3 10 Nordeste 26 Norte 0 -- -- 69
2019-12-07 11:00:00 13.9 9 Nordeste 34 Este 0 -- -- 83
2019-12-07 10:00:00 11.6 10 Nordeste 26 Nordeste 0.2 -- -- 93
2019-12-07 09:00:00 11.6 9 Nordeste 34 Norte 0 -- -- 93
2019-12-07 08:00:00 10.9 10 Norte 30 Nordeste 0 -- -- 91
2019-12-07 07:00:00 10.9 8 Norte 31 Norte 0 -- -- 93
2019-12-07 06:00:00 11.1 11 Nordeste 31 Norte 0.6 -- -- 96
2019-12-07 05:00:00 10.9 10 Norte 34 Norte 0 -- -- 87
2019-12-07 04:00:00 10.6 12 Norte 31 Norte 0 -- -- 86
2019-12-07 03:00:00 11 7 Nordeste 25 Este 0 -- -- 87
2019-12-07 02:00:00 10.6 6 Norte 33 Nordeste 0 -- -- 88
2019-12-07 01:00:00 10.7 7 Norte 33 Nordeste 0 -- -- 88
2019-12-07 00:00:00 11.3 10 Norte 45 Este 0 -- -- 87
2019-12-06 23:00:00 11.1 15 Norte 51 Norte 0 -- -- 78
2019-12-06 22:00:00 11 12 Norte 36 Norte 0 -- -- 85
2019-12-06 21:00:00 11.1 12 Norte 44 Norte 0 -- -- 91
2019-12-06 20:00:00 11.4 12 Norte 37 Nordeste 0 -- -- 86
2019-12-06 19:00:00 11.3 12 Norte 37 Norte 0 -- -- 87
2019-12-06 18:00:00 11.4 9 Norte 36 Norte 0 -- -- 83
2019-12-06 17:00:00 12.6 10 Nordeste 35 Norte 0 -- -- 79
2019-12-06 16:00:00 13 11 Nordeste 32 Norte 0 -- -- 79
2019-12-06 15:00:00 12.7 9 Nordeste 36 Este 0 -- -- 84
2019-12-06 14:00:00 13.1 12 Norte 38 Nordeste 0 -- -- 86
2019-12-06 13:00:00 12 13 Norte 41 Norte 1.6 -- -- 94
2019-12-06 12:00:00 12.3 14 Nordeste 43 Nordeste 0.2 -- -- 89
2019-12-06 11:00:00 13.2 12 Nordeste 36 Nordeste 0 -- -- 82
2019-12-06 10:00:00 12.7 10 Norte 35 Nordeste 0 -- -- 87
2019-12-06 09:00:00 12.2 12 Norte 37 Nordeste 0.4 -- -- 85
2019-12-06 08:00:00 10.8 13 Norte 42 Norte 0 -- -- 85
2019-12-06 07:00:00 10.8 13 Norte 44 Norte 0 -- -- 88
2019-12-06 06:00:00 10.8 13 Norte 44 Nordeste 0.2 -- -- 89
2019-12-06 05:00:00 10.9 17 Norte 53 Norte 0 -- -- 83
2019-12-06 04:00:00 10.7 15 Norte 51 Norte 0.2 -- -- 90
2019-12-06 03:00:00 10.9 10 Nordeste 37 Este 0 -- -- 88
2019-12-06 02:00:00 10.9 10 Norte 43 Norte 0 -- -- 88
2019-12-06 01:00:00 10.9 14 Norte 51 Nordeste 0 -- -- 89
2019-12-06 00:00:00 10.5 14 Norte 50 Nordeste 0.2 -- -- 90
2019-12-05 23:00:00 10.6 15 Norte 42 Norte 0 -- -- 93
2019-12-05 22:00:00 10.2 14 Norte 46 Norte 0 -- -- 89
2019-12-05 21:00:00 10.1 18 Norte 47 Norte 0 -- -- 89
2019-12-05 20:00:00 9.9 12 Nordeste 41 Nordeste 0.2 -- -- 95
2019-12-05 19:00:00 9.9 10 Norte 40 Norte 0.4 -- -- 93
2019-12-05 18:00:00 10 11 Norte 37 Norte 0.6 -- -- 92
2019-12-05 17:00:00 11.1 8 Norte 24 Nordeste 1.8 -- -- 94
2019-12-05 16:00:00 10.9 9 Norte 35 Norte 1.6 -- -- 95
2019-12-05 15:00:00 11.6 8 Norte 26 Norte 3.2 -- -- 96
2019-12-05 14:00:00 11 10 Norte 40 Norte 1.6 -- -- 94
2019-12-05 13:00:00 11.7 12 Norte 30 Norte 1.2 -- -- 91
2019-12-05 12:00:00 11.8 9 Nordeste 34 Noroeste 1 -- -- 90
2019-12-05 11:00:00 11.3 10 Norte 32 Noroeste 0.8 -- -- 91
2019-12-05 10:00:00 11.1 15 Norte 42 Norte 0 -- -- 85
2019-12-05 09:00:00 11.5 11 Norte 44 Nordeste 0.2 -- -- 83
2019-12-05 08:00:00 9.8 12 Norte 47 Norte 0.2 -- -- 93
2019-12-05 07:00:00 10 14 Noroeste 42 Norte 0 -- -- 95
2019-12-05 06:00:00 9.8 21 Noroeste 63 Noroeste 0.2 -- -- 93
2019-12-05 05:00:00 10.2 13 Norte 42 Norte 0 -- -- 95
2019-12-05 04:00:00 10.1 13 Norte 63 Nordeste 0.8 -- -- 92
2019-12-05 03:00:00 10.7 15 Norte 47 Norte 3 -- -- 97
2019-12-05 02:00:00 11.9 15 Norte 40 Norte 3.8 -- -- 97
2019-12-05 01:00:00 12.8 15 Norte 39 Nordeste 9.6 -- -- 98
2019-12-05 00:00:00 12.7 4 Nordeste 36 Oeste 5.2 -- -- 98
2019-12-04 23:00:00 12.5 7 Noroeste 30 Oeste 3.2 -- -- 98
2019-12-04 22:00:00 12.4 9 Noroeste 26 Oeste 3 -- -- 98
2019-12-04 21:00:00 11.8 11 Noroeste 30 Norte 0.4 -- -- 96
2019-12-04 20:00:00 11.8 8 Norte 31 Norte 0.2 -- -- 94
2019-12-04 19:00:00 11.1 14 Norte 28 Noroeste 0 -- -- 86
2019-12-04 18:00:00 12 7 Este 31 Norte 0 -- -- 90
2019-12-04 17:00:00 13.1 8 Norte 23 Norte 0 -- -- 80
2019-12-04 16:00:00 14.3 5 Sudeste 15 Sur 0 -- -- 76
2019-12-04 15:00:00 13.4 7 Este 19 Este 0 -- -- 78
2019-12-04 14:00:00 12.4 4 Sur 19 Nordeste 0 -- -- 84
2019-12-04 13:00:00 12.8 7 Nordeste 22 Norte 0 -- -- 84
2019-12-04 12:00:00 12.5 3 Sudeste 15 Sudeste 0 -- -- 84
2019-12-04 11:00:00 12.4 4 Norte 16 Noroeste 0 -- -- 83
2019-12-04 10:00:00 12.1 4 Norte 15 Este 0 -- -- 84
2019-12-04 09:00:00 11 4 Norte 9 Norte 0 -- -- 92
2019-12-04 08:00:00 11.1 4 Este 14 Nordeste 0 -- -- 84
2019-12-04 07:00:00 10.7 0 Calma 9 Nordeste 0 -- -- 86
2019-12-04 06:00:00 10.6 3 Oeste 8 Norte 0 -- -- 85
2019-12-04 05:00:00 10.9 4 Norte 11 Norte 0 -- -- 84
2019-12-04 04:00:00 11 5 Este 20 Nordeste 0 -- -- 89
2019-12-04 03:00:00 10.5 3 Nordeste 10 Noroeste 0 -- -- 89
2019-12-04 02:00:00 10.3 3 Nordeste 10 Nordeste 0 -- -- 91
2019-12-04 01:00:00 10.5 2 Norte 11 Noroeste 0 -- -- 92
2019-12-04 00:00:00 11.1 4 Nordeste 14 Nordeste 0.2 -- -- 90
2019-12-03 23:00:00 11.2 4 Nordeste 13 Nordeste 0.4 -- -- 93
2019-12-03 22:00:00 11.4 4 Nordeste 13 Nordeste 0 -- -- 91
2019-12-03 21:00:00 11.1 3 Nordeste 9 Norte 0 -- -- 85
2019-12-03 20:00:00 11.3 6 Este 13 Nordeste 0 -- -- 90
2019-12-03 19:00:00 11.6 4 Nordeste 15 Norte 0 -- -- 82
2019-12-03 18:00:00 11.8 5 Nordeste 19 Sudeste 0 -- -- 79
2019-12-03 17:00:00 12.4 6 Nordeste 27 Oeste 0 -- -- 83
2019-12-03 16:00:00 12.5 7 Norte 26 Nordeste 0 -- -- 80
2019-12-03 15:00:00 12.6 9 Nordeste 27 Este 0 -- -- 82
2019-12-03 14:00:00 12.9 8 Norte 23 Nordeste 0 -- -- 77
2019-12-03 13:00:00 12.4 6 Nordeste 19 Norte 0 -- -- 82
2019-12-03 12:00:00 12.3 6 Nordeste 28 Nordeste 0 -- -- 86
2019-12-03 11:00:00 12.6 8 Nordeste 25 Nordeste 0 -- -- 82
2019-12-03 10:00:00 12.1 9 Nordeste 26 Sudeste 0 -- -- 85
2019-12-03 09:00:00 11.2 7 Este 30 Este 0 -- -- 88
2019-12-03 08:00:00 11 9 Nordeste 25 Norte 0.2 -- -- 92
2019-12-03 07:00:00 11 4 Norte 17 Noroeste 0.2 -- -- 91
2019-12-03 06:00:00 11.3 10 Nordeste 25 Este 0 -- -- 83
2019-12-03 05:00:00 11.3 8 Sudeste 34 Oeste 0 -- -- 87
2019-12-03 04:00:00 11.2 8 Este 31 Norte 0 -- -- 88
2019-12-03 03:00:00 11.3 10 Norte 34 Oeste 0 -- -- 91
2019-12-03 02:00:00 11.3 13 Nordeste 38 Noroeste 0.2 -- -- 92
2019-12-03 01:00:00 11.8 8 Nordeste 28 Nordeste 0 -- -- 90
2019-12-03 00:00:00 11.6 10 Nordeste 42 Noroeste 0 -- -- 89
2019-12-02 23:00:00 11.8 5 Sudeste 31 Norte 0 -- -- 91
2019-12-02 22:00:00 11.8 7 Este 24 Nordeste 0 -- -- 89
2019-12-02 21:00:00 11.9 6 Este 23 Sur 0 -- -- 83
2019-12-02 20:00:00 11.8 5 Sur 21 Sur 0 -- -- 81
2019-12-02 19:00:00 11.7 10 Este 24 Este 0 -- -- 84
2019-12-02 18:00:00 12.2 8 Este 27 Noroeste 0 -- -- 82
2019-12-02 17:00:00 12.7 7 Sur 23 Oeste 0 -- -- 78
2019-12-02 16:00:00 13.3 7 Sudeste 28 Este 0 -- -- 76
2019-12-02 15:00:00 13.4 6 Sur 35 Noroeste 0 -- -- 79
2019-12-02 14:00:00 15 9 Este 26 Nordeste 0 -- -- 74
2019-12-02 13:00:00 17.2 8 Oeste 28 Noroeste 0 -- -- 65
2019-12-02 12:00:00 15.9 4 Sudoeste 22 Sudeste 0 -- -- 72
2019-12-02 11:00:00 13.8 5 Sudeste 27 Sudeste 0 -- -- 82
2019-12-02 10:00:00 14.2 8 Este 24 Norte 0 -- -- 78
2019-12-02 09:00:00 14.9 4 Sur 25 Noroeste 0 -- -- 69
2019-12-02 08:00:00 12.1 5 Este 36 Oeste 0 -- -- 80
2019-12-02 07:00:00 12.1 9 Noroeste 42 Noroeste 0 -- -- 78
2019-12-02 06:00:00 11.8 6 Noroeste 33 Norte 0 -- -- 80
2019-12-02 05:00:00 12.1 5 Norte 20 Norte 0 -- -- 58
2019-12-02 04:00:00 10.4 3 Nordeste 10 Norte 0 -- -- 55
2019-12-02 03:00:00 10.4 4 Noroeste 12 Norte 0 -- -- 59
2019-12-02 02:00:00 12 2 Norte 12 Este 0 -- -- 81
2019-12-02 01:00:00 11.5 4 Norte 8 Noroeste 0 -- -- 50
2019-12-02 00:00:00 12.4 5 Norte 8 Noroeste 0 -- -- 45
2019-12-01 23:00:00 12.7 3 Oeste 8 Noroeste 0 -- -- 45
2019-12-01 22:00:00 11.8 5 Noroeste 9 Noroeste 0 -- -- 49
2019-12-01 21:00:00 11.8 3 Noroeste 10 Norte 0 -- -- 55
2019-12-01 20:00:00 13.1 5 Norte 9 Noroeste 0 -- -- 45
2019-12-01 19:00:00 13.8 3 Norte 8 Noroeste 0 -- -- 45
2019-12-01 18:00:00 17.4 2 Nordeste 9 Sudeste 0 -- -- 71
2019-12-01 17:00:00 20 5 Sudeste 10 Sudeste 0 -- -- 38
2019-12-01 16:00:00 20.6 5 Sudeste 13 Sudeste 0 -- -- 53
2019-12-01 15:00:00 23.3 8 Sudeste 16 Este 0 -- -- 22
2019-12-01 14:00:00 23 6 Este 16 Sudeste 0 -- -- 20
2019-12-01 13:00:00 23.2 7 Este 15 Sudeste 0 -- -- 20
2019-12-01 12:00:00 21.8 8 Este 17 Este 0 -- -- 32
2019-12-01 11:00:00 22.4 8 Este 15 Sudeste 0 -- -- 25
2019-12-01 10:00:00 22 8 Este 15 Este 0 -- -- 23
2019-12-01 09:00:00 19.7 6 Este 12 Norte 0 -- -- 26
2019-12-01 08:00:00 13.6 6 Norte 12 Norte 0 -- -- 37
2019-12-01 07:00:00 13.6 7 Norte 10 Norte 0 -- -- 37
2019-12-01 06:00:00 14.5 5 Norte 16 Noroeste 0 -- -- 34
2019-12-01 05:00:00 14.6 7 Norte 15 Norte 0 -- -- 34
2019-12-01 04:00:00 14.7 6 Norte 13 Norte 0 -- -- 34
2019-12-01 03:00:00 15.9 6 Norte 14 Nordeste 0 -- -- 30
2019-12-01 02:00:00 18.1 6 Norte 21 Norte 0 -- -- 26
2019-12-01 01:00:00 18.2 7 Nordeste 21 Norte 0 -- -- 24
2019-12-01 00:00:00 17.1 6 Norte 15 Norte 0 -- -- 28
2019-11-30 23:00:00 17.8 7 Norte 21 Norte 0 -- -- 26
2019-11-30 22:00:00 18.8 8 Norte 22 Noroeste 0 -- -- 24
2019-11-30 21:00:00 19.1 7 Norte 18 Noroeste 0 -- -- 23
2019-11-30 20:00:00 19.1 6 Norte 18 Nordeste 0 -- -- 23
2019-11-30 19:00:00 19 5 Norte 17 Nordeste 0 -- -- 24
2019-11-30 18:00:00 20.4 5 Nordeste 19 Nordeste 0 -- -- 23
2019-11-30 17:00:00 21.5 10 Este 21 Este 0 -- -- 22
2019-11-30 16:00:00 22.3 9 Este 24 Sudeste 0 -- -- 21
2019-11-30 15:00:00 22.9 11 Este 24 Este 0 -- -- 22
2019-11-30 14:00:00 22.8 11 Este 22 Este 0 -- -- 24
2019-11-30 13:00:00 21.5 10 Este 27 Este 0 -- -- 28
2019-11-30 12:00:00 21.4 12 Este 28 Este 0 -- -- 29
2019-11-30 11:00:00 21.1 13 Este 23 Sudeste 0 -- -- 30
2019-11-30 10:00:00 21 9 Nordeste 26 Este 0 -- -- 28
2019-11-30 09:00:00 20.4 10 Sudeste 29 Sudeste 0 -- -- 29
2019-11-30 08:00:00 18.3 5 Nordeste 26 Este 0 -- -- 32
2019-11-30 07:00:00 18.4 8 Nordeste 19 Norte 0 -- -- 31
2019-11-30 06:00:00 18.4 8 Nordeste 21 Nordeste 0 -- -- 32
2019-11-30 05:00:00 18.6 8 Nordeste 22 Sudeste 0 -- -- 30
2019-11-30 04:00:00 18.5 7 Nordeste 22 Sudeste 0 -- -- 30
2019-11-30 03:00:00 17.9 5 Nordeste 22 Sudeste 0 -- -- 31
2019-11-30 02:00:00 18.2 8 Nordeste 22 Sudeste 0 -- -- 30
2019-11-30 01:00:00 17.3 5 Nordeste 19 Norte 0 -- -- 30
2019-11-30 00:00:00 15.6 5 Norte 17 Este 0 -- -- 37
2019-11-29 23:00:00 15.5 6 Norte 18 Norte 0 -- -- 39
2019-11-29 22:00:00 15.1 6 Norte 15 Norte 0 -- -- 43
2019-11-29 21:00:00 15.8 6 Nordeste 22 Nordeste 0 -- -- 41
2019-11-29 20:00:00 16.5 10 Nordeste 23 Este 0 -- -- 40
2019-11-29 19:00:00 16.2 8 Nordeste 21 Este 0 -- -- 43
2019-11-29 18:00:00 17.3 7 Nordeste 19 Nordeste 0 -- -- 42
2019-11-29 17:00:00 18.1 8 Nordeste 19 Nordeste 0 -- -- 44
2019-11-29 16:00:00 18.7 6 Nordeste 24 Nordeste 0 -- -- 43
2019-11-29 15:00:00 19.9 9 Este 25 Sudeste 0 -- -- 40
2019-11-29 14:00:00 19.9 13 Sudeste 35 Sudeste 0 -- -- 42
2019-11-29 13:00:00 19.7 13 Sudeste 35 Sudeste 0 -- -- 41
2019-11-29 12:00:00 19.8 11 Este 39 Sudeste 0 -- -- 40
2019-11-29 11:00:00 19.7 14 Este 45 Sudeste 0 -- -- 41
2019-11-29 10:00:00 19.9 11 Este 32 Sudeste 0 -- -- 38
2019-11-29 09:00:00 19.1 9 Nordeste 25 Nordeste 0 -- -- 38
2019-11-29 08:00:00 17.6 7 Nordeste 25 Sudeste 0 -- -- 40
2019-11-29 07:00:00 17.3 8 Este 21 Sur 0 -- -- 41
2019-11-29 06:00:00 14.4 5 Nordeste 18 Nordeste 0 -- -- 49
2019-11-29 05:00:00 13.6 5 Norte 14 Norte 0 -- -- 54
2019-11-29 04:00:00 12.7 6 Norte 11 Nordeste 0 -- -- 57
2019-11-29 03:00:00 12.9 6 Norte 13 Norte 0 -- -- 56
2019-11-29 02:00:00 13.5 6 Norte 15 Norte 0 -- -- 54
2019-11-29 01:00:00 14.1 6 Norte 17 Norte 0 -- -- 53
2019-11-29 00:00:00 14.5 6 Norte 13 Noroeste 0 -- -- 52
2019-11-28 23:00:00 15.9 7 Norte 19 Norte 0 -- -- 47
2019-11-28 22:00:00 15.8 5 Noroeste 17 Noroeste 0 -- -- 45
2019-11-28 21:00:00 15.7 4 Este 15 Sudeste 0 -- -- 46
2019-11-28 20:00:00 14.1 3 Norte 10 Norte 0 -- -- 54
2019-11-28 19:00:00 14.5 4 Norte 10 Norte 0 -- -- 56
2019-11-28 18:00:00 16.4 3 Nordeste 9 Norte 0 -- -- 50
2019-11-28 17:00:00 17.4 4 Este 10 Nordeste 0 -- -- 47
2019-11-28 16:00:00 17.2 5 Este 11 Nordeste 0 -- -- 50
2019-11-28 15:00:00 17.3 5 Este 14 Sudeste 0 -- -- 46
2019-11-28 14:00:00 16.7 5 Este 13 Nordeste 0 -- -- 57
2019-11-28 13:00:00 17.2 6 Este 18 Este 0 -- -- 74
2019-11-28 12:00:00 16.4 5 Este 13 Este 0 -- -- 78
2019-11-28 11:00:00 17.4 6 Sudeste 17 Sudeste 0 -- -- 72
2019-11-28 10:00:00 15.7 6 Sudeste 15 Sudeste 0 -- -- 87
2019-11-28 09:00:00 15.8 5 Este 12 Nordeste 0 -- -- 64
2019-11-28 08:00:00 11 5 Norte 8 Norte 0 -- -- 82
2019-11-28 07:00:00 11.1 4 Norte 8 Norte 0 -- -- 80
2019-11-28 06:00:00 11.4 4 Nordeste 13 Este 0 -- -- 78
2019-11-28 05:00:00 10.1 6 Norte 10 Norte 0 -- -- 84
2019-11-28 04:00:00 9.5 6 Norte 11 Norte 0 -- -- 86
2019-11-28 03:00:00 9.5 7 Norte 9 Norte 0 -- -- 87
2019-11-28 02:00:00 9.8 5 Norte 9 Norte 0 -- -- 86
2019-11-28 01:00:00 9.8 7 Norte 9 Norte 0 -- -- 86
2019-11-28 00:00:00 10.1 6 Norte 9 Norte 0 -- -- 86
2019-11-27 23:00:00 10.4 7 Norte 10 Norte 0 -- -- 85
2019-11-27 22:00:00 10.4 7 Norte 11 Norte 0 -- -- 87
2019-11-27 21:00:00 10 4 Norte 8 Norte 0 -- -- 87
2019-11-27 20:00:00 10.5 6 Norte 9 Norte 0 -- -- 84
2019-11-27 19:00:00 11.6 5 Norte 7 Norte 0 -- -- 83
2019-11-27 18:00:00 14.5 0 Calma 11 Sur 0 -- -- 89
2019-11-27 17:00:00 15.5 4 Sur 11 Sudeste 0 -- -- 88
2019-11-27 16:00:00 15.7 6 Sudeste 13 Sudeste 0 -- -- 87
2019-11-27 15:00:00 16.1 6 Sur 15 Sudeste 0 -- -- 85
2019-11-27 14:00:00 15.9 8 Sudeste 14 Sudeste 0 -- -- 86
2019-11-27 13:00:00 14.7 6 Sudeste 13 Sudeste 0 -- -- 91
2019-11-27 05:00:00 -- -- -- -- -- -- -- -- --
2019-11-27 04:00:00 10.1 3 Norte 12 Norte 0 -- -- 98
2019-11-27 03:00:00 10.2 5 Norte 12 Norte 0 -- -- 98
2019-11-27 02:00:00 10.5 4 Norte 10 Norte 0 -- -- 98
2019-11-27 01:00:00 10.1 3 Norte 9 Nordeste 0 -- -- 98
2019-11-27 00:00:00 9.9 4 Norte 7 Norte 0 -- -- 96
2019-11-26 23:00:00 10.2 4 Norte 7 Noroeste 0 -- -- 96
2019-11-26 22:00:00 10.9 3 Nordeste 10 Norte 0 -- -- 94
2019-11-26 21:00:00 11.2 5 Norte 10 Noroeste 0 -- -- 93
2019-11-26 20:00:00 12.1 5 Norte 16 Norte 0 -- -- 90
2019-11-26 19:00:00 12.3 5 Norte 12 Noroeste 0 -- -- 91
2019-11-26 18:00:00 14.5 0 Calma 11 Sur 0 -- -- 84
2019-11-26 17:00:00 15.5 5 Sudoeste 14 Sur 0 -- -- 83
2019-11-26 16:00:00 16 6 Sur 15 Sudeste 0 -- -- 83
2019-11-26 15:00:00 15.9 9 Sur 14 Sur 0 -- -- 84
2019-11-26 14:00:00 14.2 5 Sudeste 10 Sur 0 -- -- 93
2019-11-26 13:00:00 14 5 Sudeste 10 Sudeste 0 -- -- 95
2019-11-26 12:00:00 14.9 6 Sudeste 17 Este 0 -- -- 88
2019-11-26 11:00:00 13.9 6 Este 13 Sudeste 0 -- -- 88
2019-11-26 10:00:00 13.3 4 Este 20 Este 0 -- -- 92
2019-11-26 09:00:00 12.1 4 Nordeste 15 Este 0 -- -- 94
2019-11-26 08:00:00 11.7 4 Nordeste 16 Nordeste 0 -- -- 98
2019-11-26 07:00:00 10.6 7 Nordeste 18 Este 0 -- -- 100
2019-11-26 06:00:00 9.1 3 Nordeste 9 Noroeste 0 -- -- 94
2019-11-26 05:00:00 9.2 5 Noroeste 7 Noroeste 0 -- -- 96
2019-11-26 04:00:00 9.6 5 Este 12 Noroeste 0 -- -- 98
2019-11-26 03:00:00 8 3 Nordeste 8 Noroeste 0 -- -- 95
2019-11-26 02:00:00 7.8 4 Norte 9 Noroeste 0 -- -- 89
2019-11-26 01:00:00 11 8 Nordeste 23 Este 0 -- -- 92
2019-11-26 00:00:00 11.1 6 Nordeste 18 Nordeste 0 -- -- 98
2019-11-25 23:00:00 8.1 4 Norte 8 Noroeste 0 -- -- 91
2019-11-25 22:00:00 8.9 3 Noroeste 13 Noroeste 0 -- -- 87
2019-11-25 21:00:00 9.1 6 Noroeste 15 Norte 0 -- -- 89
2019-11-25 20:00:00 9.6 3 Noroeste 13 Este 0 -- -- 91
2019-11-25 19:00:00 11.1 4 Nordeste 8 Este 0 -- -- 86
2019-11-25 18:00:00 12.8 3 Sudeste 15 Este 0 -- -- 84
2019-11-25 17:00:00 13.6 6 Este 19 Sudeste 0 -- -- 83
2019-11-25 16:00:00 14.3 9 Sudeste 18 Sudeste 0 -- -- 80
2019-11-25 15:00:00 15.1 7 Este 19 Este 0 -- -- 80
2019-11-25 14:00:00 15.2 7 Sudeste 22 Este 0 -- -- 80
2019-11-25 13:00:00 15.2 10 Sudeste 17 Sudeste 0 -- -- 74
2019-11-25 12:00:00 13.7 6 Sudeste 12 Sudeste 0 -- -- 81
2019-11-25 11:00:00 13.4 6 Este 12 Sur 0 -- -- 83
2019-11-25 10:00:00 12.9 3 Sudeste 8 Sudeste 0 -- -- 85
2019-11-25 09:00:00 9.4 3 Norte 9 Norte 0 -- -- 93
2019-11-25 08:00:00 7.2 5 Norte 9 Norte 0 -- -- 90
2019-11-25 07:00:00 7.5 4 Noroeste 10 Norte 0 -- -- 91
2019-11-25 06:00:00 7.2 5 Norte 9 Norte 0 -- -- 84
2019-11-25 05:00:00 8.2 6 Norte 8 Norte 0 -- -- 87
2019-11-25 04:00:00 9 6 Noroeste 12 Noroeste 0 -- -- 88
2019-11-25 03:00:00 8.7 4 Noroeste 15 Nordeste 0 -- -- 83
2019-11-25 02:00:00 11.6 4 Norte 15 Nordeste 0 -- -- 89
2019-11-25 01:00:00 12.1 5 Nordeste 28 Este 0 -- -- 88
2019-11-25 00:00:00 12.8 7 Nordeste 21 Norte 0 -- -- 80
2019-11-24 23:00:00 12.9 6 Nordeste 18 Nordeste 0 -- -- 75
2019-11-24 22:00:00 10.8 4 Norte 13 Norte 0 -- -- 83
2019-11-24 21:00:00 12.5 4 Este 19 Nordeste 0 -- -- 88
2019-11-24 20:00:00 13.3 9 Nordeste 23 Este 0 -- -- 94
2019-11-24 19:00:00 13.6 6 Nordeste 17 Este 0 -- -- 93
2019-11-24 18:00:00 13.9 4 Este 17 Este 0 -- -- 92
2019-11-24 17:00:00 14.5 6 Este 12 Este 0 -- -- 92
2019-11-24 16:00:00 15.3 7 Nordeste 18 Nordeste 0 -- -- 90
2019-11-24 15:00:00 16.1 9 Este 18 Sudeste 0 -- -- 84
2019-11-24 14:00:00 16.9 11 Sudeste 20 Sudeste 0 -- -- 81
2019-11-24 13:00:00 16.5 9 Sudeste 16 Sudeste 0 -- -- 87
2019-11-24 12:00:00 15.4 5 Sudeste 17 Sudeste 0 -- -- 89
2019-11-24 11:00:00 16.6 7 Este 20 Este 0 -- -- 81
2019-11-24 10:00:00 16.5 10 Sudeste 18 Sudeste 0 -- -- 78
2019-11-24 09:00:00 15.6 9 Este 17 Este 0 -- -- 80
2019-11-24 08:00:00 13.5 6 Nordeste 14 Este 0 -- -- 90
2019-11-24 07:00:00 13.9 6 Norte 22 Nordeste 0 -- -- 90
2019-11-24 06:00:00 13.3 8 Norte 21 Norte 0 -- -- 89
2019-11-24 05:00:00 12.8 7 Nordeste 26 Este 0 -- -- 86
2019-11-24 04:00:00 12.3 5 Norte 21 Norte 0 -- -- 85
2019-11-24 03:00:00 12.7 5 Norte 19 Nordeste 0 -- -- 81
2019-11-24 02:00:00 12.6 8 Norte 23 Norte 0 -- -- 84
2019-11-24 01:00:00 13 9 Norte 22 Nordeste 0 -- -- 75
2019-11-24 00:00:00 14.7 12 Nordeste 30 Nordeste 0 -- -- 53
2019-11-23 23:00:00 14 12 Norte 26 Nordeste 0 -- -- 67
2019-11-23 22:00:00 13.8 5 Norte 21 Nordeste 0 -- -- 76
2019-11-23 21:00:00 14.9 9 Nordeste 28 Nordeste 0 -- -- 69
2019-11-23 20:00:00 13.9 8 Norte 31 Noroeste 0 -- -- 74
2019-11-23 19:00:00 14.2 8 Norte 24 Norte 0 -- -- 81
2019-11-23 18:00:00 15.8 7 Norte 21 Norte 0 -- -- 74
2019-11-23 17:00:00 17.8 8 Norte 26 Noroeste 0 -- -- 69
2019-11-23 16:00:00 19.9 8 Norte 23 Norte 0 -- -- 59
2019-11-23 15:00:00 20.5 8 Este 29 Norte 0 -- -- 60
2019-11-23 14:00:00 19.5 9 Este 30 Este 0 -- -- 71
2019-11-23 13:00:00 18.8 8 Este 21 Este 0 -- -- 76
2019-11-23 12:00:00 18.5 9 Nordeste 26 Nordeste 0 -- -- 77
2019-11-23 11:00:00 16.8 5 Este 28 Sudeste 0 -- -- 90
2019-11-23 10:00:00 15.2 8 Nordeste 24 Este 0 -- -- 93
2019-11-23 09:00:00 14.7 4 Nordeste 14 Sudoeste 0 -- -- 96
2019-11-23 08:00:00 14.5 8 Sudeste 12 Este 0.2 -- -- 99
2019-11-23 07:00:00 14.6 3 Este 12 Sur 0.4 -- -- 99
2019-11-23 06:00:00 14.8 4 Sudeste 8 Sudeste 0.8 -- -- 99
2019-11-23 05:00:00 14.8 3 Este 7 Nordeste 0.4 -- -- 98
2019-11-23 04:00:00 14.7 0 Calma 9 Sudeste 0 -- -- 96
2019-11-23 03:00:00 14.9 2 Sudeste 10 Sur 0 -- -- 94
2019-11-23 02:00:00 14.4 0 Calma 7 Sudoeste 0 -- -- 94
2019-11-23 01:00:00 14.6 3 Sudoeste 15 Noroeste 0 -- -- 91
2019-11-23 00:00:00 15 8 Noroeste 21 Noroeste 0 -- -- 86
2019-11-22 23:00:00 13.9 7 Noroeste 22 Norte 0 -- -- 91
2019-11-22 22:00:00 13 3 Noroeste 7 Noroeste 0 -- -- 94
2019-11-22 21:00:00 13.1 4 Norte 14 Norte 0 -- -- 91
2019-11-22 20:00:00 14.1 6 Norte 14 Noroeste 0 -- -- 91
2019-11-22 19:00:00 14.9 0 Calma 19 Norte 0 -- -- 87
2019-11-22 18:00:00 16 8 Norte 22 Noroeste 0 -- -- 84
2019-11-22 17:00:00 17.6 6 Nordeste 23 Norte 0 -- -- 78
2019-11-22 16:00:00 19.1 6 Norte 23 Norte 0 -- -- 69
2019-11-22 15:00:00 18.7 9 Sudeste 20 Sudeste 0 -- -- 70
2019-11-22 14:00:00 19 9 Sur 19 Sur 0 -- -- 73
2019-11-22 13:00:00 18.7 8 Sudeste 15 Sur 0 -- -- 75
2019-11-22 12:00:00 17.8 8 Sudeste 19 Sur 0 -- -- 83
2019-11-22 11:00:00 17.1 9 Sur 19 Sur 0 -- -- 86
2019-11-22 10:00:00 15.8 4 Este 19 Norte 0 -- -- 78
2019-11-22 09:00:00 14.8 4 Norte 10 Oeste 0 -- -- 89
2019-11-22 08:00:00 12.8 4 Sudeste 15 Oeste 0 -- -- 97
2019-11-22 07:00:00 12.2 5 Sudoeste 14 Sudoeste 0 -- -- 99
2019-11-22 06:00:00 13 5 Oeste 15 Este 0 -- -- 97
2019-11-22 05:00:00 13.8 3 Este 7 Sudeste 0 -- -- 99
2019-11-22 04:00:00 13.5 0 Calma 7 Sur 0 -- -- 98
2019-11-22 03:00:00 14.1 4 Sudoeste 14 Oeste 0.2 -- -- 99
2019-11-22 02:00:00 14 3 Sudoeste 12 Noroeste 0.4 -- -- 98
2019-11-22 01:00:00 14.4 2 Sur 12 Oeste 0.2 -- -- 100
2019-11-22 00:00:00 14 7 Oeste 20 Oeste 0 -- -- 99
2019-11-21 23:00:00 13.9 4 Noroeste 15 Oeste 0 -- -- 97
2019-11-21 22:00:00 14.3 2 Este 10 Este 0.2 -- -- 99
2019-11-21 21:00:00 14.2 3 Este 13 Sudeste 0 -- -- 99
2019-11-21 20:00:00 14.5 3 Este 12 Sur 0.2 -- -- 98
2019-11-21 19:00:00 14.7 2 Sudeste 13 Sur 0 -- -- 97
2019-11-21 18:00:00 14.9 6 Sudeste 15 Sudeste 0 -- -- 92
2019-11-21 17:00:00 15.9 5 Este 25 Oeste 0 -- -- 87
2019-11-21 16:00:00 17.1 9 Oeste 29 Oeste 0 -- -- 75
2019-11-21 15:00:00 16.8 6 Norte 23 Oeste 0 -- -- 80
2019-11-21 14:00:00 16.2 7 Noroeste 24 Noroeste 0 -- -- 81
2019-11-21 13:00:00 17.1 10 Noroeste 30 Oeste 0 -- -- 76
2019-11-21 12:00:00 17.4 8 Oeste 22 Norte 0 -- -- 72
2019-11-21 11:00:00 15.8 6 Oeste 28 Norte 0 -- -- 75
2019-11-21 10:00:00 14 4 Sudeste 15 Oeste 0 -- -- 86
2019-11-21 09:00:00 12.6 3 Sur 14 Norte 0 -- -- 92
2019-11-21 08:00:00 11.2 4 Noroeste 13 Nordeste 0 -- -- 86
2019-11-21 07:00:00 -- -- -- -- -- -- -- -- --
2019-11-21 06:00:00 -- -- -- -- -- -- -- -- --
2019-11-21 05:00:00 -- -- -- -- -- -- -- -- --
2019-11-21 04:00:00 -- -- -- -- -- -- -- -- --
2019-11-21 03:00:00 -- -- -- -- -- -- -- -- --
2019-11-21 02:00:00 -- -- -- -- -- -- -- -- --
2019-11-21 01:00:00 -- -- -- -- -- -- -- -- --
2019-11-21 00:00:00 -- -- -- -- -- -- -- -- --
2019-11-20 23:00:00 -- -- -- -- -- -- -- -- --
2019-11-20 22:00:00 -- -- -- -- -- -- -- -- --
2019-11-20 21:00:00 -- -- -- -- -- -- -- -- --
2019-11-20 20:00:00 -- -- -- -- -- -- -- -- --
2019-11-20 19:00:00 -- -- -- -- -- -- -- -- --
2019-11-20 18:00:00 14.6 3 Sudeste 22 Oeste 0 -- -- 88
2019-11-20 17:00:00 16.2 6 Sudeste 14 Oeste 0 -- -- 79
2019-11-20 16:00:00 17 5 Oeste 22 Oeste 0 -- -- 72
2019-11-20 15:00:00 17.6 5 Sur 17 Sudeste 0 -- -- 68
2019-11-20 14:00:00 17.5 8 Sur 17 Sudeste 0 -- -- 67
2019-11-20 13:00:00 17.1 7 Sudeste 19 Sudeste 0 -- -- 71
2019-11-20 12:00:00 16.8 7 Sudeste 15 Sudeste 0 -- -- 74
2019-11-20 11:00:00 15.3 7 Sur 16 Sudeste 0 -- -- 83
2019-11-20 10:00:00 15.8 6 Sudeste 13 Sur 0 -- -- 82
2019-11-20 09:00:00 13.7 4 Sudeste 9 Sudeste 0 -- -- 81
2019-11-20 08:00:00 8.9 4 Noroeste 10 Noroeste 0.2 -- -- 96
2019-11-20 07:00:00 8.9 7 Noroeste 13 Noroeste 0 -- -- 95
2019-11-20 06:00:00 9.6 5 Noroeste 12 Noroeste 0 -- -- 94
2019-11-20 05:00:00 10.7 6 Noroeste 14 Norte 0 -- -- 93
2019-11-20 04:00:00 10.4 5 Noroeste 13 Noroeste 0 -- -- 98
2019-11-20 03:00:00 9.5 4 Norte 11 Norte 0 -- -- 96
2019-11-20 02:00:00 10.1 3 Nordeste 7 Noroeste 0 -- -- 97
2019-11-20 01:00:00 10.6 3 Este 7 Norte 0 -- -- 94
2019-11-20 00:00:00 11 4 Norte 17 Noroeste 0 -- -- 91
2019-11-19 23:00:00 11.1 0 Calma 6 Oeste 0 -- -- 95
2019-11-19 22:00:00 9.7 2 Norte 6 Norte 0 -- -- 92
2019-11-19 21:00:00 11.1 2 Nordeste 16 Este 0 -- -- 84
2019-11-19 20:00:00 12.4 7 Este 23 Este 0 -- -- 76
2019-11-19 19:00:00 11.4 7 Norte 17 Norte 0 -- -- 81
2019-11-19 18:00:00 12.7 6 Norte 19 Oeste 0 -- -- 71
2019-11-19 17:00:00 14 8 Noroeste 22 Oeste 0 -- -- 75
2019-11-19 16:00:00 15.6 6 Norte 23 Noroeste 0 -- -- 70
2019-11-19 15:00:00 15.9 5 Oeste 26 Noroeste 0 -- -- 68
2019-11-19 14:00:00 15.8 11 Oeste 22 Oeste 0 -- -- 72
2019-11-19 13:00:00 14.9 4 Este 19 Nordeste 0 -- -- 75
2019-11-19 12:00:00 14 6 Norte 15 Noroeste 0 -- -- 81
2019-11-19 11:00:00 14.3 6 Noroeste 22 Norte 0 -- -- 81
2019-11-19 10:00:00 12.8 4 Norte 12 Noroeste 0 -- -- 77
2019-11-19 09:00:00 11.5 3 Sudoeste 13 Norte 0 -- -- 86
2019-11-19 08:00:00 9.8 4 Noroeste 12 Noroeste 0 -- -- 95
2019-11-19 07:00:00 9.7 3 Noroeste 13 Noroeste 0 -- -- 97
2019-11-19 06:00:00 8.2 5 Norte 11 Noroeste 0 -- -- 99
2019-11-19 05:00:00 8.2 6 Noroeste 13 Noroeste 0 -- -- 95
2019-11-19 04:00:00 8.8 8 Norte 16 Norte 0 -- -- 95
2019-11-19 03:00:00 8.6 6 Norte 14 Norte 0 -- -- 95
2019-11-19 02:00:00 9.3 6 Noroeste 22 Norte 0 -- -- 89
2019-11-19 01:00:00 9.7 9 Norte 21 Norte 0 -- -- 87
2019-11-19 00:00:00 9.5 9 Norte 22 Norte 0 -- -- 90
2019-11-18 23:00:00 9.3 6 Norte 22 Norte 0 -- -- 86
2019-11-18 22:00:00 10.3 10 Norte 24 Nordeste 0 -- -- 90
2019-11-18 21:00:00 10.9 11 Norte 23 Norte 0 -- -- 90
2019-11-18 20:00:00 11.6 7 Norte 18 Norte 0 -- -- 92
2019-11-18 19:00:00 11.7 6 Norte 23 Nordeste 0.2 -- -- 93
2019-11-18 18:00:00 12.3 8 Nordeste 21 Este 0.4 -- -- 96
2019-11-18 17:00:00 12.8 6 Nordeste 27 Noroeste 0 -- -- 93
2019-11-18 16:00:00 14.3 7 Este 24 Este 0 -- -- 77
2019-11-18 15:00:00 13.8 5 Nordeste 29 Sudeste 0 -- -- 78
2019-11-18 14:00:00 13.5 8 Sur 28 Este 0 -- -- 82
2019-11-18 13:00:00 13.3 7 Este 25 Norte 0 -- -- 84
2019-11-18 12:00:00 13.4 4 Norte 28 Sudeste 0 -- -- 85
2019-11-18 11:00:00 12.8 14 Este 54 Este 0 -- -- 87
2019-11-18 10:00:00 12.6 12 Este 37 Sudeste 0 -- -- 89
2019-11-18 09:00:00 12.2 8 Nordeste 23 Nordeste 0.2 -- -- 94
2019-11-18 08:00:00 11.2 7 Norte 29 Nordeste 0 -- -- 91
2019-11-18 07:00:00 11 10 Nordeste 27 Nordeste 0 -- -- 89
2019-11-18 06:00:00 11.2 10 Nordeste 32 Nordeste 0 -- -- 90
2019-11-18 05:00:00 11.3 8 Nordeste 30 Nordeste 0 -- -- 90
2019-11-18 04:00:00 10.9 9 Nordeste 25 Norte 0 -- -- 89
2019-11-18 03:00:00 11.3 10 Nordeste 33 Nordeste 0 -- -- 89
2019-11-18 02:00:00 10.9 9 Nordeste 23 Nordeste 0.2 -- -- 92
2019-11-18 01:00:00 10.8 6 Norte 28 Nordeste 0 -- -- 94
2019-11-18 00:00:00 11 11 Norte 32 Norte 0 -- -- 92
2019-11-17 23:00:00 10.4 9 Norte 38 Norte 0 -- -- 93
2019-11-17 22:00:00 11.2 10 Nordeste 32 Este 0.4 -- -- 97
2019-11-17 21:00:00 11.3 12 Nordeste 27 Norte 0.2 -- -- 94
2019-11-17 20:00:00 11.4 9 Nordeste 28 Norte 0 -- -- 93
2019-11-17 19:00:00 11.2 7 Norte 27 Nordeste 0 -- -- 90
2019-11-17 18:00:00 11.5 8 Nordeste 27 Nordeste 0 -- -- 89
2019-11-17 17:00:00 11.6 11 Nordeste 34 Nordeste 0 -- -- 92
2019-11-17 16:00:00 12.4 12 Nordeste 30 Nordeste 0 -- -- 90
2019-11-17 15:00:00 12.2 11 Nordeste 26 Nordeste 0.6 -- -- 95
2019-11-17 14:00:00 12.9 6 Norte 29 Este 0 -- -- 87
2019-11-17 13:00:00 12.4 10 Nordeste 27 Norte 1 -- -- 96
2019-11-17 12:00:00 12.6 10 Sudeste 42 Sudeste 0.2 -- -- 93
2019-11-17 11:00:00 12.9 10 Este 30 Norte 0 -- -- 90
2019-11-17 10:00:00 12.2 9 Este 37 Este 0 -- -- 94
2019-11-17 09:00:00 11.9 9 Nordeste 30 Este 0 -- -- 91
2019-11-17 08:00:00 11.4 9 Norte 29 Norte 0 -- -- 92
2019-11-17 07:00:00 11.1 8 Nordeste 27 Sudeste 0 -- -- 93
2019-11-17 06:00:00 10.9 8 Nordeste 29 Nordeste 0.2 -- -- 93
2019-11-17 05:00:00 11.1 9 Nordeste 27 Este 0 -- -- 93
2019-11-17 04:00:00 11.3 10 Norte 31 Nordeste 0.2 -- -- 93
2019-11-17 03:00:00 11.7 11 Nordeste 30 Nordeste 0 -- -- 84
2019-11-17 02:00:00 11.4 9 Norte 24 Nordeste 0 -- -- 86
2019-11-17 01:00:00 11.3 8 Nordeste 28 Nordeste 0 -- -- 89
2019-11-17 00:00:00 10.5 8 Norte 29 Nordeste 0 -- -- 85
2019-11-16 23:00:00 11.2 8 Norte 28 Nordeste 0 -- -- 85
2019-11-16 22:00:00 11.5 8 Nordeste 48 Este 0 -- -- 88
2019-11-16 21:00:00 11.7 14 Nordeste 38 Este 0 -- -- 89
2019-11-16 20:00:00 11.3 10 Nordeste 31 Nordeste 0 -- -- 87
2019-11-16 19:00:00 11.5 11 Norte 33 Este 0 -- -- 89
2019-11-16 18:00:00 12 10 Norte 33 Noroeste 0 -- -- 85
2019-11-16 17:00:00 13.2 11 Norte 35 Norte 0 -- -- 77
2019-11-16 16:00:00 14.5 10 Nordeste 33 Norte 0 -- -- 74
2019-11-16 15:00:00 14.3 13 Nordeste 38 Norte 0 -- -- 73
2019-11-16 14:00:00 14.3 12 Nordeste 38 Este 0 -- -- 75
2019-11-16 13:00:00 14.2 14 Nordeste 37 Este 0 -- -- 76
2019-11-16 12:00:00 13.5 10 Norte 33 Nordeste 0 -- -- 81
2019-11-16 11:00:00 13.1 12 Norte 45 Norte 0 -- -- 81
2019-11-16 10:00:00 12.5 12 Nordeste 49 Nordeste 0 -- -- 80
2019-11-16 09:00:00 11.3 13 Norte 39 Norte 0.2 -- -- 91
2019-11-16 08:00:00 10.9 9 Nordeste 30 Este 0.2 -- -- 97
2019-11-16 07:00:00 10.6 9 Norte 36 Norte 0.2 -- -- 95
2019-11-16 06:00:00 10.5 10 Norte 33 Nordeste 0.4 -- -- 95
2019-11-16 05:00:00 11 11 Nordeste 30 Nordeste 0.4 -- -- 97
2019-11-16 04:00:00 10.6 11 Norte 31 Norte 0 -- -- 87
2019-11-16 03:00:00 10.6 8 Norte 29 Noroeste 0 -- -- 87
2019-11-16 02:00:00 10.9 9 Norte 30 Norte 0 -- -- 87
2019-11-16 01:00:00 10.8 9 Norte 39 Nordeste 0 -- -- 86
2019-11-16 00:00:00 11 9 Norte 28 Nordeste 0 -- -- 87
2019-11-15 23:00:00 10.7 10 Norte 35 Este 0 -- -- 81
2019-11-15 22:00:00 10.7 11 Norte 33 Este 0 -- -- 86
2019-11-15 21:00:00 10.9 10 Norte 38 Norte 0 -- -- 86
2019-11-15 20:00:00 11.2 8 Nordeste 26 Nordeste 0 -- -- 84
2019-11-15 19:00:00 11.6 9 Nordeste 26 Norte 0 -- -- 88
2019-11-15 18:00:00 12 5 Nordeste 29 Norte 0 -- -- 89
2019-11-15 17:00:00 12.8 9 Nordeste 33 Nordeste 0.4 -- -- 88
2019-11-15 16:00:00 14.3 11 Nordeste 33 Norte 0 -- -- 80
2019-11-15 15:00:00 14.8 13 Nordeste 38 Nordeste 0 -- -- 78
2019-11-15 14:00:00 13.8 8 Nordeste 39 Norte 0.2 -- -- 94
2019-11-15 13:00:00 13.5 10 Nordeste 49 Noroeste 0 -- -- 93
2019-11-15 12:00:00 13.3 11 Nordeste 32 Este 0 -- -- 92
2019-11-15 11:00:00 12.7 12 Nordeste 35 Nordeste 1.2 -- -- 96
2019-11-15 10:00:00 13.5 8 Norte 33 Este 0.2 -- -- 90
2019-11-15 09:00:00 13 9 Nordeste 28 Nordeste 0 -- -- 86
2019-11-15 08:00:00 12.3 11 Norte 31 Norte 0 -- -- 83
2019-11-15 07:00:00 12.1 9 Norte 31 Nordeste 0 -- -- 82
2019-11-15 06:00:00 11.9 10 Norte 35 Norte 0 -- -- 85
2019-11-15 05:00:00 12 12 Norte 42 Nordeste 0 -- -- 81
2019-11-15 04:00:00 12.1 12 Norte 37 Nordeste 0 -- -- 86
2019-11-15 03:00:00 12.3 11 Nordeste 43 Nordeste 0 -- -- 91
2019-11-15 02:00:00 12.6 19 Nordeste 43 Nordeste 0.2 -- -- 94
2019-11-15 01:00:00 12.7 12 Nordeste 37 Nordeste 0 -- -- 95
2019-11-15 00:00:00 12.6 11 Nordeste 44 Nordeste 0 -- -- 85
2019-11-14 23:00:00 12.7 18 Nordeste 46 Norte 0 -- -- 90
2019-11-14 22:00:00 13 11 Nordeste 33 Este 0 -- -- 91
2019-11-14 21:00:00 13.1 12 Nordeste 36 Norte 0 -- -- 88
2019-11-14 20:00:00 13.1 14 Nordeste 33 Nordeste 0 -- -- 90
2019-11-14 19:00:00 13 9 Norte 34 Este 0 -- -- 85
2019-11-14 18:00:00 13.6 13 Nordeste 36 Nordeste 0 -- -- 83
2019-11-14 17:00:00 14.7 9 Este 29 Sudeste 0 -- -- 82
2019-11-14 16:00:00 15.7 9 Nordeste 32 Este 0 -- -- 71
2019-11-14 15:00:00 15.2 11 Nordeste 33 Nordeste 0.2 -- -- 74
2019-11-14 14:00:00 14.5 10 Nordeste 29 Nordeste 0 -- -- 87
2019-11-14 13:00:00 13.7 5 Nordeste 27 Este 0.4 -- -- 95
2019-11-14 12:00:00 14 11 Nordeste 32 Este 0 -- -- 93
2019-11-14 11:00:00 14.5 10 Nordeste 29 Nordeste 0 -- -- 86
2019-11-14 10:00:00 13.5 8 Nordeste 34 Nordeste 0 -- -- 93
2019-11-14 09:00:00 13.1 9 Nordeste 33 Este 0 -- -- 93
2019-11-14 08:00:00 12.9 13 Nordeste 39 Norte 0 -- -- 88
2019-11-14 07:00:00 12.9 9 Nordeste 31 Nordeste 0 -- -- 88
2019-11-14 06:00:00 12.9 9 Este 33 Nordeste 0 -- -- 87
2019-11-14 05:00:00 12.8 12 Nordeste 29 Sudeste 0 -- -- 88
2019-11-14 04:00:00 12.6 8 Este 30 Norte 0 -- -- 86
2019-11-14 03:00:00 12.7 8 Nordeste 44 Norte 0 -- -- 88
2019-11-14 02:00:00 12.4 14 Norte 46 Norte 0 -- -- 84
2019-11-14 01:00:00 12.5 15 Norte 46 Norte 0 -- -- 86
2019-11-14 00:00:00 12.3 13 Norte 34 Norte 0 -- -- 85
2019-11-13 23:00:00 12.6 13 Norte 39 Norte 0 -- -- 86
2019-11-13 22:00:00 12.9 10 Nordeste 31 Oeste 0 -- -- 80
2019-11-13 21:00:00 13.9 10 Sudeste 33 Este 0 -- -- 66
2019-11-13 20:00:00 13.5 13 Este 36 Este 0 -- -- 69
2019-11-13 19:00:00 13.1 14 Norte 51 Norte 0 -- -- 83
2019-11-13 18:00:00 13.7 14 Norte 36 Norte 0 -- -- 83
2019-11-13 17:00:00 14.6 9 Norte 24 Norte 0 -- -- 75
2019-11-13 16:00:00 15.6 11 Nordeste 30 Este 0 -- -- 75
2019-11-13 15:00:00 17.1 10 Nordeste 30 Norte 0 -- -- 62
2019-11-13 14:00:00 17.2 10 Este 37 Este 0 -- -- 64
2019-11-13 13:00:00 16.4 13 Nordeste 40 Nordeste 0 -- -- 70
2019-11-13 12:00:00 15.6 15 Nordeste 39 Sur 0 -- -- 73
2019-11-13 11:00:00 15.3 13 Nordeste 36 Nordeste 0 -- -- 76
2019-11-13 10:00:00 14.8 10 Nordeste 28 Norte 0 -- -- 77
2019-11-13 09:00:00 13.7 11 Este 30 Este 0 -- -- 85
2019-11-13 08:00:00 13 11 Nordeste 35 Nordeste 0 -- -- 90
2019-11-13 07:00:00 12.8 17 Norte 41 Norte 0 -- -- 91
2019-11-13 06:00:00 12.8 12 Norte 36 Noroeste 0 -- -- 90
2019-11-13 05:00:00 12.8 13 Norte 33 Norte 0 -- -- 88
2019-11-13 04:00:00 13 9 Norte 21 Norte 0 -- -- 75
2019-11-13 03:00:00 14.1 6 Norte 22 Norte 0 -- -- 72
2019-11-13 02:00:00 14.7 10 Norte 28 Norte 0 -- -- 66
2019-11-13 01:00:00 14.3 9 Norte 27 Norte 0 -- -- 66
2019-11-13 00:00:00 13.7 8 Norte 30 Norte 0 -- -- 78
2019-11-12 23:00:00 13.7 13 Norte 42 Norte 0 -- -- 84
2019-11-12 22:00:00 13.9 12 Nordeste 39 Norte 0 -- -- 90
2019-11-12 21:00:00 13.8 10 Nordeste 24 Nordeste 0 -- -- 79
2019-11-12 20:00:00 14.1 10 Nordeste 40 Noroeste 0 -- -- 96
2019-11-12 19:00:00 14.3 10 Nordeste 37 Noroeste 0.2 -- -- 92
2019-11-12 18:00:00 14.8 9 Nordeste 34 Este 0 -- -- 91
2019-11-12 17:00:00 15.8 12 Norte 48 Norte 0 -- -- 82
2019-11-12 16:00:00 17.1 13 Norte 45 Norte 0 -- -- 77
2019-11-12 15:00:00 17.2 13 Nordeste 39 Nordeste 0 -- -- 75
2019-11-12 14:00:00 17 10 Nordeste 38 Nordeste 0 -- -- 79
2019-11-12 13:00:00 16.2 9 Nordeste 33 Este 0 -- -- 82
2019-11-12 12:00:00 16.4 10 Nordeste 42 Este 0 -- -- 78
2019-11-12 11:00:00 16.1 13 Este 41 Norte 0 -- -- 80
2019-11-12 10:00:00 15.7 11 Norte 39 Norte 0 -- -- 79
2019-11-12 09:00:00 14 10 Nordeste 37 Nordeste 0 -- -- 90
2019-11-12 08:00:00 13.3 11 Norte 39 Norte 0 -- -- 87
2019-11-12 07:00:00 13 13 Norte 40 Norte 0 -- -- 82
2019-11-12 06:00:00 13.2 11 Norte 41 Nordeste 0 -- -- 85
2019-11-12 05:00:00 13.4 12 Norte 36 Noroeste 0 -- -- 84
2019-11-12 04:00:00 13.2 14 Norte 44 Norte 0 -- -- 84
2019-11-12 03:00:00 13.6 9 Norte 27 Noroeste 0 -- -- 78
2019-11-12 02:00:00 13.9 10 Norte 45 Norte 0 -- -- 79
2019-11-12 01:00:00 14 13 Nordeste 31 Norte 0 -- -- 74
2019-11-12 00:00:00 13.5 6 Nordeste 24 Nordeste 0 -- -- 84
2019-11-11 23:00:00 13.1 5 Este 44 Norte 0 -- -- 89
2019-11-11 22:00:00 13.4 17 Norte 49 Noroeste 0 -- -- 90
2019-11-11 21:00:00 13.3 21 Norte 47 Norte 0 -- -- 90
2019-11-11 20:00:00 13.6 15 Norte 50 Norte 0 -- -- 93
2019-11-11 19:00:00 13.8 12 Norte 32 Noroeste 0 -- -- 92
2019-11-11 18:00:00 14.2 10 Nordeste 51 Norte 0 -- -- 86
2019-11-11 17:00:00 15.8 18 Norte 48 Norte 0 -- -- 81
2019-11-11 16:00:00 16.9 19 Norte 59 Norte 0 -- -- 72
2019-11-11 15:00:00 17.9 15 Norte 44 Norte 0 -- -- 68
2019-11-11 14:00:00 19.7 16 Noroeste 44 Norte 0 -- -- 59
2019-11-11 13:00:00 19.9 7 Nordeste 22 Este 0 -- -- 54
2019-11-11 12:00:00 18.2 8 Nordeste 31 Norte 0 -- -- 62
2019-11-11 11:00:00 16.4 11 Nordeste 42 Norte 0 -- -- 71
2019-11-11 10:00:00 14.8 13 Nordeste 35 Norte 0 -- -- 80
2019-11-11 09:00:00 13.5 10 Este 43 Norte 0 -- -- 84
2019-11-11 08:00:00 12.7 10 Norte 32 Este 0 -- -- 86
2019-11-11 07:00:00 12.2 10 Este 35 Norte 0 -- -- 86
2019-11-11 06:00:00 12.8 12 Nordeste 39 Norte 0 -- -- 92
2019-11-11 05:00:00 12.1 12 Nordeste 51 Norte 0 -- -- 88
2019-11-11 04:00:00 12.1 17 Norte 49 Norte 0 -- -- 87
2019-11-11 03:00:00 12.7 13 Nordeste 37 Norte 0 -- -- 87
2019-11-11 02:00:00 12.5 8 Nordeste 25 Este 0 -- -- 89
2019-11-11 01:00:00 12.4 8 Nordeste 31 Noroeste 0 -- -- 85
2019-11-11 00:00:00 12.8 7 Norte 30 Norte 0 -- -- 86